Preview of NWS' New Version of Forecast
This preview is not operational and should not be used for support decisions.

Regional Weather Roundup (RWR)

Issued by Gray - Portland, ME (GYX)

                            
000
ASUS41 KGYX 211005
RWRGYX
WEATHER ROUNDUP FOR MAINE AND NEW HAMPSHIRE
NATIONAL WEATHER SERVICE GRAY ME
600 AM EDT SAT SEP 21 2019

MEZ002-005-006-010-012-015-018-020-021-024-026-027-029-211100-
MAINE
  
CITY           SKY/WX    TMP DP  RH WIND       PRES   REMARKS
PORTLAND       FAIR      56  51  84 W3        30.13R                  
SANFORD        FAIR      49  48  97 CALM      30.15R                  
BAR HARBOR     FAIR      58  55  90 W3        30.09R                  
WISCASSET      FAIR      52  50  93 CALM      30.14R                  
ROCKLAND       FAIR      58  53  84 NW6       30.11R                  
FRYEBURG       FAIR      49  47  93 CALM      30.16R                  
LEWISTONAUBURN FAIR      55  52  89 NW3       30.14R                  
AUGUSTA        FAIR      58  53  84 NW5       30.14R                  
WATERVILLE     FAIR      55  52  89 CALM      30.11R                  
BANGOR         FAIR      57  53  86 CALM      30.11R                  
GREENVILLE       N/A     57  55  93 NW8       30.13R                  
MILLINOCKET    FAIR      57  54  89 N3        30.12R                  
HOULTON        FAIR      47  46  97 CALM      30.08S                  
PRESQUE ISLE   FAIR      55  49  80 NW6       30.11R                  
FRENCHVILLE    FAIR      50  47  89 N5        30.12R                  
CARIBOU        FAIR      53  47  79 N7        30.10R                  
$$

NHZ002-005-008-009-011-012-014-211100-
NEW HAMPSHIRE
  
CITY           SKY/WX    TMP DP  RH WIND       PRES   REMARKS
PORTSMOUTH     CLEAR     56  53  89 W5        30.13R                  
ROCHESTER      FAIR      58  50  75 NW3       30.14S                  
NASHUA         FAIR      54  53  97 CALM      30.16S                  
MANCHESTER     FAIR      60  50  69 N6        30.15R                  
CONCORD        FAIR      49  47  93 CALM      30.17S                  
LACONIA        FAIR      55  53  93 W3        30.18R                  
PLYMOUTH       FAIR      47  46  97 CALM      30.19R                  
BERLIN         CLOUDY    49  46  90 CALM      30.20R                  
WHITEFIELD     MOCLDY    47  44  90 CALM      30.21R                  
JAFFREY        FAIR      49  46  90 CALM      30.21S                  
KEENE          FAIR      45  45 100 CALM      30.22R                  
LEBANON        MOCLDY    46  41  82 CALM      30.21R HAZE             
MT WASHINGTON  FOG       46  46 100 N35G45      N/A  VSB 1/16         
$$

VTZ005-007-008-211100-
VERMONT
  
CITY           SKY/WX    TMP DP  RH WIND       PRES   REMARKS
ST JOHNSBURY     N/A     48  47  96 MISG      30.21R                  
MONTPELIER     FAIR      46  45  96 CALM      30.25S FOG              
BURLINGTON     FAIR      53  50  89 CALM      30.20R                  
$$

MAZ007-012-024-CTZ003-RIZ002-NYZ038-NYZ072-211100-
SOUTHERN NEW ENGLAND AND NY
  
CITY           SKY/WX    TMP DP  RH WIND       PRES   REMARKS
BOSTON         FAIR      65  49  56 NW7       30.15R                  
WORCESTER      FAIR      60  49  66 W6        30.19R                  
NANTUCKET      FAIR      60  58  92 W7        30.14R                  
PROVIDENCE     FAIR      58  49  72 CALM      30.17R                  
HARTFORD       FAIR      50  48  93 CALM      30.19S                  
ALBANY         FAIR      53  50  89 CALM      30.22R                  
NEW YORK CITY  PTCLDY    63  54  72 CALM      30.19F                  
$$

ANZ081-ANZ082-ANZ150-NHZ014-MEZ023>029-211100-
COASTAL MARINE OBSERVATIONS
  
STATION/POSITION TIME  TEMP    WIND        PRES    WAVE
                       AIR SEA DIR/SP/G            HT/PER
                 (UTC) (F)     (DEG/KT/KT) (MB)    (FT/S)
MOUNT DESERT ROC 0900          270/ 13/ 13 1018.2R
MATINICUS ROCK   0950   62                 1018.9R
ISLE OF SHOALS   0900   63     300/  5/  5 1019.9R
JEFFREYS LEDGE   0938      62                N/A     6/12
CASHES LEDGE BUO 0950   62 60  300/  6/ 10 1019.7R   7/11
GEORGES BANK BUO 0950   60 58              1019.8R   6/11
$$

.............KEY..............
   WCI - WIND CHILL
   TC  - TEMPERATURE IN CELSIUS
   VSB - VISIBILITY IN MILES
   HX  - HEAT INDEX
   FAIR- INDICATES FEW OR NO CLOUDS BELOW 12,000 FT, WITH NO 
         SIGNIFICANT WEATHER AND/OR OBSTRUCTIONS TO VISIBILITY.